Regional Weather Roundup
Issued by NWS

Home | Current Version | Previous Version | Graphics & Text | Print | Product List | Glossary On
Versions: 1 2 3 4 5 6 7 8 9 10 11 12 13 14 15 16 17 18 19 20 21 22 23 24 25 26 27 28 29 30 31 32 33 34 35 36 37 38 39 40 41 42 43 44 45 46 47 48 49 50
000
ASUS43 KMKX 191800
RWRWI

WISCONSIN REGIONAL WEATHER ROUNDUP
NATIONAL WEATHER SERVICE MILWAUKEE/SULLIVAN WI
100 PM CDT TUE SEP 19 2017

NOTE: "FAIR" INDICATES FEW OR NO CLOUDS BELOW 12,000 FEET WITH NO
SIGNIFICANT WEATHER AND/OR OBSTRUCTIONS TO VISIBILITY.

WIZ001-002-006>008-014>016-023>028-191900-
NORTHWEST WISCONSIN

CITY           SKY/WX    TMP DP  RH WIND       PRES   REMARKS
SUPERIOR ARPT  CLOUDY    64  58  80 NE10      29.92F
ASHLAND        MOSUNNY   74  58  57 E8        29.94F
6HR MIN TEMP:  57; 6HR MAX TEMP:  75;

HAYWARD        MOSUNNY   72  58  61 SE12      29.94F
6HR MIN TEMP:  58; 6HR MAX TEMP:  72;

SIREN          SUNNY     71  59  65 SE9       29.91F
CUMBERLAND     SUNNY     68  57  68 SE10      29.93F
RICE LAKE      SUNNY     72  59  63 E9        29.94F
CHETEK         SUNNY     72  62  69 SE10      29.94F
LADYSMITH      SUNNY     73  59  61 S8        29.97F
EAU CLAIRE     SUNNY     74  60  61 SE14      29.92F
6HR MIN TEMP:  57; 6HR MAX TEMP:  75;

MENOMONIE      SUNNY     73  62  66 SE10      29.93S
NEW RICHMOND   MOSUNNY   74  60  62 SE13      29.90F
OSCEOLA        CLOUDY    73  62  68 SE13      29.92F
$$

WIZ003>005-009-010-017-018-191900-
NORTH CENTRAL WISCONSIN

CITY           SKY/WX    TMP DP  RH WIND       PRES   REMARKS
MANITOWISH WTR SUNNY     70  55  57 S8        29.99F
ARBOR VITAE    SUNNY     72  57  58 S8        29.99F
WOODRUFF       SUNNY     72  57  58 S8        29.99F
RHINELANDER    SUNNY     73  56  54 E10       30.00F
6HR MIN TEMP:  53; 6HR MAX TEMP:  73;

EAGLE RIVER    SUNNY     71  54  54 SE7       30.00F
LAND O LAKES   SUNNY     72  55  54 SE9G16    30.02S
6HR MIN TEMP:  54; 6HR MAX TEMP:  72;

PHILLIPS       SUNNY     71  57  61 S9        29.97F
TOMAHAWK         N/A     72  55  55 SE5       29.99F
MEDFORD        MOSUNNY   70  57  62 SE8       29.98S
MERRILL        MOSUNNY   72  55  56 SE8       29.99F
$$

WIZ029-030-035-036-043>047-191900-
CENTRAL WISCONSIN

CITY           SKY/WX    TMP DP  RH WIND       PRES   REMARKS
WAUSAU         SUNNY     73  55  53 SE10      29.97F
6HR MIN TEMP:  54; 6HR MAX TEMP:  73;

MOSINEE        MOSUNNY   73  55  53 SE8       29.99F
MARSHFIELD     SUNNY     73  55  53 SE8       29.97F
6HR MIN TEMP:  56; 6HR MAX TEMP:  74;

STEVENS POINT  SUNNY     71  54  54 E12       29.99F
WAUPACA        SUNNY     78  57  47 E8        29.99F
WAUTOMA        SUNNY     76  52  43 SE8       29.98F
6HR MIN TEMP:  52; 6HR MAX TEMP:  76;

WISC RAPIDS    SUNNY     77  53  43 SE9       29.97F
6HR MIN TEMP:  58; 6HR MAX TEMP:  78;

CAMP DOUGLAS   NOT AVBL
$$

WIZ011>013-019>022-031-037>040-048>050-191900-
NORTHEAST WISCONSIN

CITY           SKY/WX    TMP DP  RH WIND       PRES   REMARKS
ANTIGO         SUNNY     69  58  68 SE12      30.02S
SHAWANO        MOSUNNY   72  62  69 E7        30.00F
OCONTO         PTSUNNY   70  60  71 SE7       30.01S
STURGEON BAY   SUNNY     70  58  65 E8        30.02F HAZE
6HR MIN TEMP:  61; 6HR MAX TEMP:  70;

GREEN BAY      PTSUNNY   73  64  73 CALM      30.00F
6HR MIN TEMP:  56; 6HR MAX TEMP:  73;

MANITOWOC      PTSUNNY   68  60  75 VRB5      30.01F
6HR MIN TEMP:  59; 6HR MAX TEMP:  68;

APPLETON       PTSUNNY   72  57  60 E8        29.99S
CLINTONVILLE   MOSUNNY   73  57  56 E7        30.00F
OSHKOSH        SUNNY     73  60  63 E7        29.98F
6HR MIN TEMP:  58; 6HR MAX TEMP:  73;

$$

WIZ032>034-041-042-053>061-191900-
SOUTHWEST WISCONSIN

CITY           SKY/WX    TMP DP  RH WIND       PRES   REMARKS
LA CROSSE      MOSUNNY   77  64  64 SE5       29.91F
6HR MIN TEMP:  59; 6HR MAX TEMP:  79;

SPARTA         SUNNY     75  62  64 E8        29.95F
VIROQUA        MOSUNNY   74  64  71 SE7       29.96F
BOSCOBEL       MOSUNNY   80  62  54 E8        29.94F HX  81
6HR MIN TEMP:  53; 6HR MAX TEMP:  80;

PRAIRIE DU CHI SUNNY     79  60  53 SE8       29.92F HX  80
PLATTEVILLE    MOSUNNY   77  66  68 E7        29.97S
$$

WIZ056-057-062-063-064-067-068-191900-
SOUTH CENTRAL WISCONSIN

CITY           SKY/WX    TMP DP  RH WIND       PRES   REMARKS
REEDSBURG      SUNNY     75  60  58 E7        29.96F
BARABOO/DELLS  SUNNY     75  55  50 E5        29.97F
LONE ROCK      SUNNY     77  63  61 E12       29.95F
6HR MIN TEMP:  56; 6HR MAX TEMP:  78;

MINERAL POINT  MOSUNNY   77  64  65 SE7       29.97S
MADISON        SUNNY     77  58  51 E7        29.96F
6HR MIN TEMP:  55; 6HR MAX TEMP:  77;

MIDDLETON      SUNNY     75  60  59 SE7       29.98S
WATERTOWN      SUNNY     78  56  45 E8        29.97S
MONROE         SUNNY     73  59  60 E8        29.97S
JANESVILLE     MOSUNNY   81  63  54 VRB6      29.95F HX  82
$$

WIZ051-052-058>065-066-070>072-191900-
SOUTHEAST WISCONSIN

CITY           SKY/WX    TMP DP  RH WIND       PRES   REMARKS
MILWAUKEE      CLOUDY    71  67  87 E9        29.98S FOG
6HR MIN TEMP:  64; 6HR MAX TEMP:  75;

WAUKESHA       MOSUNNY   73  61  64 E12       29.98F
MILWAUKEE/TIMM CLOUDY    70  59  68 E7        29.99S HAZE
RACINE         CLOUDY    72  67  84 E12       29.99S HAZE
6HR MIN TEMP:  65; 6HR MAX TEMP:  77;

BURLINGTON     SUNNY     78  66  66 E10       29.96F HX  80
KENOSHA        MOSUNNY   76  65  68 E12       29.97S
6HR MIN TEMP:  65; 6HR MAX TEMP:  78;

FOND DU LAC    SUNNY     77  56  48 NE9       29.98S
6HR MIN TEMP:  54; 6HR MAX TEMP:  77;

SHEBOYGAN      PTSUNNY   70  62  76 E7        30.00F
6HR MIN TEMP:  59; 6HR MAX TEMP:  72;

WEST BEND        N/A     73  61  64 E6        29.99S
JUNEAU         SUNNY     75  56  51 E5        29.98S
$$

LSZ147-162-191900-
LAKE SUPERIOR

STATION/POSITION TIME  TEMP    WIND        PRES    WAVE
                       AIR SEA DIR/SP/G            HT/PER
                 (UTC) (F)     (DEG/KT/KT) (MB)    (FT/S)
W MID LAKE BUOY  1650   57 54  100/  8/  8 1015.2F   1/ 4
DEVILS ISLAND    1700   60      60/  5/  6 1014.9F
SAXON HARBOR     1730   66      60/  4/  7 1013.9F
$$

LMZ867-665-643>646-191900-
LAKE MICHIGAN

STATION/POSITION TIME  TEMP    WIND        PRES    WAVE
                       AIR SEA DIR/SP/G            HT/PER
                 (UTC) (F)     (DEG/KT/KT) (MB)    (FT/S)
S GREEN BAY BUOY 1730   68 67  100/  6/  6 1016.2S
N MID LAKE BUOY  1650   63 65  110/  8/ 10 1017.8F   1/ 3
NORTHPORT PIER   1740   67     110/  6/  8 1016.9F
KEWAUNEE LAKESHO 1730   65      80/  3/  6 1015.8F
SHEBOYGAN LAKESH 1700   65     100/  5/  6 1015.8
PORT WASHINGTON  1740   69      90/  8/  9 1016.3F
ATWATER BUOY     1609   67 68   70/  6/ 10 1015.8S
MILWAUKEE LAKESH 1730   66      80/ 10/ 11   N/A
S MID LAKE BUOY  1650   65 68   60/  8/ 10 1015.5R   1/ 4
KENOSHA   LAKESH 1700   69      70/  5/  6 1014.9
$$

TC  - TEMPERATURE IN CELSIUS
VSB - VISIBILITY IN STATUTE MILES
WCI - WIND CHILL INDEX
HX  - HEAT INDEX




USA.gov is the U.S. government's official web portal to all federal, state and local government web resources and services.